Regional Weather Roundup
Issued by NWS Northern Indiana

Home | Current Version | Previous Version | Graphics & Text | Print | Product List | Glossary On
Versions: 1 2 3 4 5 6 7 8 9 10 11 12 13 14 15 16 17 18 19 20 21 22 23 24 25 26 27 28 29 30 31 32 33 34 35 36 37 38 39 40 41 42 43 44 45 46 47 48 49 50
000
ASUS43 KIWX 010110
RWRIWX

KIWX WEATHER ROUNDUP
NATIONAL WEATHER SERVICE NORTHERN INDIANA
900 PM EDT FRI JUL 31 2015

NOTE: "FAIR" INDICATES FEW OR NO CLOUDS BELOW 12,000 FEET WITH NO
SIGNIFICANT WEATHER AND/OR OBSTRUCTIONS TO VISIBILITY.

* THESE STATIONS ARE NOT UNDER NWS QUALITY CONTROL. THEY ALSO MAY NOT
  REPORT WEATHER SUCH AS PRECIPITATION OR FOG.

INZ001>027-010200-
NORTHERN INDIANA

CITY           SKY/WX    TMP DP  RH WIND       PRES   REMARKS
GARY*          CLEAR     81  48  32 W14       29.94R
VALPARAISO     CLEAR     75  55  49 CALM      29.95R
MICHIGAN CITY* CLEAR     72  59  64 CALM      29.94S
LAPORTE*       CLEAR     73  58  58 NW3       29.95S
KNOX*          CLEAR     72  54  53 N7        29.94R
SOUTH BEND     CLEAR     73  52  47 NW6       29.94S
ELKHART*       CLEAR     75  50  41 CALM      29.94R
GOSHEN         CLEAR     74  52  46 N9        29.93S
MONTICELLO*    CLEAR     77  59  53 W5        29.94S
LOGANSPORT*    CLEAR     77  46  33 W6        29.95R
ROCHESTER*     CLEAR     77  55  47 NW5       29.95R
WARSAW*        CLEAR     72  54  53 NW5       29.94R
ANGOLA*        CLEAR     73  63  68 NW5       29.93R
FORT WAYNE     PTCLDY    77  56  48 NW7       29.92S
HUNTINGTON*    MOCLDY    76  58  52 NW5       29.93R
PERU/GRISSOM   CLEAR     74  60  62 W7        29.93R
MARION*        CLEAR     71  59  64 W5        29.94S

$$
INZ028>050-010200-
CENTRAL INDIANA

CITY           SKY/WX    TMP DP  RH WIND       PRES   REMARKS
LAFAYETTE      CLEAR     74  61  63 W6        29.95S
KOKOMO*        CLEAR     77  57  50 W9        29.94S
MUNCIE*        CLEAR     75  58  55 W10       29.94S
INDIANAPOLIS   PTCLDY    79  58  48 W10       29.96S

$$
MIZ043>046-050>051-056>058-064>065-071>073-077>080-010200-
SOUTHWEST LOWER MICHIGAN

CITY           SKY/WX    TMP DP  RH WIND       PRES   REMARKS
BATTLE CREEK   CLEAR     73  51  46 W8        29.92S
BENTON HARBOR  PTCLDY    69  60  73 W5        29.93R
COLDWATER*     CLEAR     71  50  47 W6        29.92S
HILLSDALE*     CLEAR     74  51  44 W8        29.92S
HOLLAND        CLEAR     73  57  57 W3        29.92R
GRAND RAPIDS   PTCLDY    76  51  41 W10       29.90R
KALAMAZOO      CLEAR     74  50  42 NW7       29.92R
STURGIS*       CLEAR     72  54  53 NW3       29.93R
THREE RIVERS*  FAIR      71  54  54 W5        29.93R

$$
OHZ001>008-015>018-024>025-010200-
NORTHWEST OHIO

CITY           SKY/WX    TMP DP  RH WIND       PRES   REMARKS
WAUSEON*       FAIR      73  55  53 NW8       29.90R
DEFIANCE       FAIR      77  55  46 NW8       29.90R
FINDLAY        MOCLDY    74  65  73 W7        29.89S
TOLEDO EXPRESS FAIR      76  57  51 W7        29.88S
TOLEDO METCALF FAIR      78  53  41 W10       29.88S
LIMA           FAIR      75  64  68 SW7       29.92S

$$
AND FOR LAKE MICHIGAN COASTAL AND OPEN LAKE BUOY OBSERVATIONS

STATION/POSITION TEMP    WIND        PRES    VSBY  WAVE
                 AIR SEA DIR/SP/G                  HT/PER
                 (F)     (DEG/KT/KT) (MB)    (MI)  (FT/S)
CALUMET HARBOR    83     290/  7/ 12   N/A
MICHIGAN CITY     76     330/ 12/ 13   N/A
BURNS HARBOR      77     360/  9/ 12 1013.9S
SAINT JOSEPH      75     250/  3/  4 1013.9F
4 MI NW BRIDGMAN  74 74  320/  4/  4   N/A           1/ 3
MICHIGAN CITY     74 74   10/  6/  8   N/A           3/ 4

$$
&&



USA.gov is the U.S. government's official web portal to all federal, state and local government web resources and services.